When you browse on this site, cookies collect data to enhance your experience and personalize the content and advertising you see.
Visit our Privacy Policy to learn more. By continuing to use the site, you agree to this use of cookies and data.
  • In Romania
  • List of Countries
  • For 7 days
  • Water Temperature
  • Weather Map
  • Weather Widgets
  • user-avatar
    Login

    Hourly Weather Chegem

    Today, 10 December, Tuesday

    Time Temperature Precipitation Wind Pressure Humidity
    00:00 -8°C° 0 mm 2 mps 589 mmHg 70%
    01:00 -8°C° 0 mm 2 mps 589 mmHg 67%
    02:00 -8°C° 0 mm 2 mps 589 mmHg 63%
    03:00 -8°C° 0 mm 2 mps 588 mmHg 59%
    04:00 -9°C° 0 mm 2 mps 588 mmHg 55%
    05:00 -9°C° 0 mm 2 mps 588 mmHg 50%
    06:00 -9°C° 0 mm 2 mps 588 mmHg 46%
    07:00 -7°C° 0 mm 1 mps 589 mmHg 45%
    08:00 -7°C° 0 mm 1 mps 589 mmHg 44%
    09:00 -6°C° 0 mm 1 mps 590 mmHg 43%
    10:00 -4°C° 0 mm 1 mps 590 mmHg 47%
    11:00 -2°C° 0 mm 1 mps 590 mmHg 51%
    12:00 -1°C° 0 mm 1 mps 590 mmHg 55%
    13:00 -2°C° 0 mm 1 mps 590 mmHg 60%
    14:00 -2°C° 0 mm 1 mps 589 mmHg 64%
    15:00 -3°C° 0 mm 1 mps 589 mmHg 69%
    16:00 -6°C° 0 mm 2 mps 589 mmHg 64%
    17:00 -7°C° 0 mm 2 mps 588 mmHg 59%
    18:00 -8°C° 0 mm 2 mps 588 mmHg 54%
    19:00 -8°C° 0 mm 2 mps 588 mmHg 52%
    20:00 -8°C° 0 mm 2 mps 588 mmHg 51%
    21:00 -8°C° 0 mm 2 mps 588 mmHg 49%
    22:00 -8°C° 0 mm 2 mps 588 mmHg 48%
    23:00 -8°C° 0 mm 2 mps 588 mmHg 46%

    Tomorrow, 11 December, Wednesday

    Time Temperature Precipitation Wind Pressure Humidity
    00:00 -8°C° 0 mm 2 mps 588 mmHg 44%
    01:00 -8°C° 0 mm 2 mps 588 mmHg 44%
    02:00 -8°C° 0 mm 2 mps 588 mmHg 44%
    03:00 -8°C° 0 mm 2 mps 588 mmHg 44%
    04:00 -8°C° 0 mm 2 mps 588 mmHg 43%
    05:00 -8°C° 0 mm 2 mps 588 mmHg 43%
    06:00 -8°C° 0 mm 2 mps 588 mmHg 43%
    07:00 -8°C° 0 mm 2 mps 589 mmHg 44%
    08:00 -7°C° 0 mm 2 mps 589 mmHg 45%
    09:00 -6°C° 0 mm 2 mps 590 mmHg 46%
    10:00 -3°C° 0 mm 1 mps 590 mmHg 48%
    11:00 -2°C° 0 mm 1 mps 590 mmHg 49%
    12:00 -1°C° 0 mm 0 mps 591 mmHg 50%
    13:00 -2°C° 0 mm 0 mps 590 mmHg 56%
    14:00 -3°C° 0 mm 0 mps 590 mmHg 62%
    15:00 -3°C° 0 mm 0 mps 589 mmHg 68%
    16:00 -3°C° 0 mm 1 mps 589 mmHg 66%
    17:00 -6°C° 0 mm 1 mps 588 mmHg 64%
    18:00 -8°C° 0 mm 2 mps 588 mmHg 62%
    19:00 -8°C° 0 mm 2 mps 588 mmHg 59%
    20:00 -8°C° 0 mm 2 mps 588 mmHg 55%
    21:00 -8°C° 0 mm 2 mps 588 mmHg 52%
    22:00 -8°C° 0 mm 2 mps 588 mmHg 52%
    23:00 -8°C° 0 mm 2 mps 588 mmHg 53%

    Day after tomorrow, 12 December, Thursday

    Time Temperature Precipitation Wind Pressure Humidity
    00:00 -8°C° 0 mm 2 mps 588 mmHg 53%
    01:00 -8°C° 0 mm 2 mps 588 mmHg 55%
    02:00 -8°C° 0 mm 2 mps 588 mmHg 57%
    03:00 -8°C° 0 mm 2 mps 588 mmHg 58%
    04:00 -8°C° 0 mm 2 mps 588 mmHg 56%
    05:00 -8°C° 0 mm 2 mps 587 mmHg 53%
    06:00 -8°C° 0 mm 2 mps 587 mmHg 51%
    07:00 -7°C° 0 mm 2 mps 587 mmHg 51%
    08:00 -6°C° 0 mm 2 mps 588 mmHg 50%
    09:00 -6°C° 0 mm 2 mps 588 mmHg 49%
    10:00 -3°C° 0 mm 1 mps 588 mmHg 51%
    11:00 -1°C° 0 mm 1 mps 588 mmHg 53%
    12:00 0°C° 0 mm 1 mps 588 mmHg 54%
    13:00 -1°C° 0 mm 1 mps 588 mmHg 60%
    14:00 -2°C° 0 mm 1 mps 587 mmHg 65%
    15:00 -2°C° 0 mm 1 mps 587 mmHg 71%
    16:00 -3°C° 0 mm 1 mps 586 mmHg 65%
    17:00 -6°C° 0 mm 1 mps 586 mmHg 59%
    18:00 -8°C° 0 mm 2 mps 585 mmHg 53%
    19:00 -8°C° 0 mm 2 mps 586 mmHg 50%
    20:00 -8°C° 0 mm 2 mps 586 mmHg 47%
    21:00 -8°C° 0 mm 2 mps 586 mmHg 44%
    22:00 -8°C° 0 mm 2 mps 585 mmHg 43%
    23:00 -8°C° 0 mm 2 mps 585 mmHg 42%

    13 December, Friday

    Time Temperature Precipitation Wind Pressure Humidity
    00:00 -8°C° 0 mm 2 mps 585 mmHg 41%
    01:00 -8°C° 0 mm 2 mps 585 mmHg 40%
    02:00 -8°C° 0 mm 2 mps 585 mmHg 39%
    03:00 -8°C° 0 mm 2 mps 585 mmHg 38%
    04:00 -8°C° 0 mm 2 mps 585 mmHg 37%
    05:00 -8°C° 0 mm 2 mps 585 mmHg 36%
    06:00 -8°C° 0 mm 2 mps 584 mmHg 35%
    07:00 -8°C° 0 mm 2 mps 585 mmHg 35%
    08:00 -6°C° 0 mm 1 mps 585 mmHg 36%
    09:00 -4°C° 0 mm 1 mps 586 mmHg 37%
    10:00 -3°C° 0 mm 1 mps 586 mmHg 43%
    11:00 -2°C° 0 mm 1 mps 586 mmHg 48%
    12:00 0°C° 0 mm 1 mps 587 mmHg 54%
    13:00 -1°C° 0 mm 1 mps 586 mmHg 55%
    14:00 -2°C° 0 mm 1 mps 586 mmHg 57%
    15:00 -5°C° 0 mm 2 mps 585 mmHg 58%
    16:00 -5°C° 0 mm 2 mps 585 mmHg 51%
    17:00 -6°C° 0 mm 2 mps 585 mmHg 45%
    18:00 -7°C° 0 mm 2 mps 585 mmHg 38%
    19:00 -7°C° 0 mm 2 mps 585 mmHg 36%
    20:00 -7°C° 0 mm 2 mps 585 mmHg 33%
    21:00 -7°C° 0 mm 2 mps 586 mmHg 31%
    22:00 -7°C° 0 mm 2 mps 586 mmHg 32%
    23:00 -7°C° 0 mm 2 mps 586 mmHg 33%

    14 December, Saturday

    Time Temperature Precipitation Wind Pressure Humidity
    00:00 -7°C° 0 mm 2 mps 586 mmHg 34%
    01:00 -6°C° 0 mm 2 mps 586 mmHg 39%
    02:00 -6°C° 0 mm 2 mps 586 mmHg 43%
    03:00 -6°C° 0 mm 2 mps 586 mmHg 47%
    04:00 -6°C° 0 mm 2 mps 586 mmHg 51%
    05:00 -6°C° 0 mm 2 mps 586 mmHg 55%
    06:00 -6°C° 0 mm 2 mps 586 mmHg 59%
    07:00 -6°C° 0 mm 2 mps 587 mmHg 59%
    08:00 -5°C° 0 mm 2 mps 587 mmHg 60%
    09:00 -4°C° 0 mm 2 mps 588 mmHg 60%
    10:00 -1°C° 0 mm 1 mps 588 mmHg 60%
    11:00 0°C° 0 mm 1 mps 588 mmHg 61%
    12:00 0°C° 0 mm 0 mps 589 mmHg 61%
    13:00 0°C° 0 mm 0 mps 588 mmHg 64%
    14:00 -1°C° 0 mm 0 mps 588 mmHg 68%
    15:00 -2°C° 0 mm 0 mps 588 mmHg 71%
    16:00 -2°C° 0 mm 1 mps 588 mmHg 71%
    17:00 -3°C° 0 mm 1 mps 587 mmHg 72%
    18:00 -6°C° 0 mm 2 mps 587 mmHg 72%
    19:00 -6°C° 0 mm 2 mps 587 mmHg 71%
    20:00 -6°C° 0 mm 2 mps 587 mmHg 69%
    21:00 -6°C° 0 mm 2 mps 588 mmHg 67%
    22:00 -6°C° 0 mm 2 mps 588 mmHg 65%
    23:00 -6°C° 0 mm 2 mps 588 mmHg 63%

    15 December, Sunday

    Time Temperature Precipitation Wind Pressure Humidity
    00:00 -6°C° 0 mm 2 mps 588 mmHg 61%
    01:00 -6°C° 0 mm 2 mps 588 mmHg 59%
    02:00 -6°C° 0 mm 2 mps 588 mmHg 57%
    03:00 -6°C° 0 mm 2 mps 588 mmHg 54%
    04:00 -6°C° 0 mm 2 mps 588 mmHg 52%
    05:00 -6°C° 0 mm 2 mps 588 mmHg 49%
    06:00 -6°C° 0 mm 2 mps 588 mmHg 47%
    07:00 -5°C° 0 mm 2 mps 588 mmHg 47%
    08:00 -5°C° 0 mm 2 mps 589 mmHg 47%
    09:00 -4°C° 0 mm 2 mps 589 mmHg 48%
    10:00 -1°C° 0 mm 1 mps 590 mmHg 50%
    11:00 0°C° 0 mm 1 mps 590 mmHg 51%
    12:00 +2°C° 0 mm 1 mps 591 mmHg 53%
    13:00 0°C° 0 mm 0 mps 590 mmHg 57%
    14:00 0°C° 0 mm 0 mps 590 mmHg 61%
    15:00 -1°C° 0 mm 0 mps 590 mmHg 65%
    16:00 -1°C° 0 mm 1 mps 589 mmHg 62%
    17:00 -4°C° 0 mm 2 mps 589 mmHg 60%
    18:00 -5°C° 0 mm 2 mps 589 mmHg 57%
    19:00 -6°C° 0 mm 3 mps 589 mmHg 56%
    20:00 -6°C° 0 mm 3 mps 589 mmHg 54%
    21:00 -6°C° 0 mm 3 mps 590 mmHg 53%
    22:00 -6°C° 0 mm 3 mps 590 mmHg 54%
    23:00 -6°C° 0 mm 3 mps 590 mmHg 55%
    Show more